Change the Weather History Date:

Monday, December 17, 2012

  Actual Average Record
Temperature  
Mean Temperature 25 °F 20 °F  
Max Temperature 36 °F 30 °F 57 °F (1980)
Min Temperature 13 °F 10 °F -27 °F (1964)
Degree Days  
Heating Degree Days 40    
Month to date heating degree days 609  
Since 1 July heating degree days 2382  
Cooling Degree Days 0    
Month to date cooling degree days 0  
Year to date cooling degree days 242  
Moisture  
Dew Point 20 °F    
Average Humidity 67    
Maximum Humidity 78    
Minimum Humidity 56    
Precipitation  
Precipitation T in 0.01 in 0.18 in (2002)
Month to date precipitation 0.07 0.18  
Year to date precipitation 6.19 10.48  
Snow  
Snow 0.00 in - - ()
Snow Depth 1.00 in    
Sea Level Pressure  
Sea Level Pressure 29.52 in    
Wind  
Wind Speed 13 mph (WSW)    
Max Wind Speed 37 mph    
Max Gust Speed 44 mph    
Visibility 6 miles    
Events Fog , Snow    
T = Trace of Precipitation, MM = Missing Value Source: NWS Daily Summary

Daily Weather History Graph

Daily Weather History Graph

Search for Another Location

Airport or City:

Trip Planner

Search our weather history database for the weather conditions in past years. The results will help you decide how hot, cold, wet, or windy it might be!

Date:

Astronomy

Dec. 17, 2012 Rise Set
Actual Time 8:04 AM MST 4:48 PM MST
Civil Twilight 7:30 AM MST 5:23 PM MST
Nautical Twilight 6:52 AM MST 6:00 PM MST
Astronomical Twilight 6:16 AM MST 6:36 PM MST
Moon 11:03 AM MST (12/17) 10:28 PM MST (12/17)
Length of Visible Light 9h 52m
Length of Day
8h 44m
Waxing Crescent, 25% of the Moon is Illuminated
Dec 17
Waxing Crescent
Dec 19
First Quarter
Dec 28
Full
Jan 4
Last Quarter
Jan 11
New

Hourly Weather History & Observations

Time (MST) Temp. Windchill Dew Point Humidity Pressure Visibility Wind Dir Wind Speed Gust Speed Precip Events Conditions
12:53 AM 15.1 °F 9.4 °F 9.0 °F 77% 29.65 in 10.0 mi NE 3.5 mph - N/A   Clear
1:53 AM 24.1 °F - 12.0 °F 60% 29.55 in 10.0 mi Calm Calm - N/A   Mostly Cloudy
2:53 AM 23.0 °F 15.8 °F 12.0 °F 63% 29.53 in 10.0 mi NW 5.8 mph - N/A   Scattered Clouds
3:53 AM 23.0 °F 17.0 °F 14.0 °F 68% 29.49 in 10.0 mi ENE 4.6 mph - N/A   Scattered Clouds
4:53 AM 21.9 °F - 14.0 °F 72% 29.49 in 10.0 mi Calm Calm - N/A   Scattered Clouds
5:53 AM 27.0 °F 21.6 °F 18.0 °F 69% 29.46 in 10.0 mi North 4.6 mph - N/A   Overcast
6:53 AM 25.0 °F - 17.1 °F 72% 29.47 in 10.0 mi Calm Calm - N/A   Scattered Clouds
7:53 AM 30.0 °F - 21.0 °F 69% 29.47 in 8.0 mi Calm Calm - 0.00 in Snow Light Snow
8:01 AM 30.2 °F - 21.2 °F 69% 29.36 in 4.0 mi Calm Calm - 0.00 in Snow Light Snow
8:19 AM 28.4 °F - 21.2 °F 74% 29.35 in 10.0 mi Calm Calm - 0.00 in   Mostly Cloudy
8:53 AM 28.0 °F 21.7 °F 23.0 °F 81% 29.47 in 10.0 mi NW 5.8 mph - 0.00 in   Partly Cloudy
9:54 AM 33.1 °F 20.9 °F 24.1 °F 70% 29.49 in 9.0 mi West 21.9 mph 31.1 mph N/A   Unknown
10:08 AM 32.0 °F 18.6 °F 24.8 °F 75% 29.40 in 9.0 mi West 25.3 mph 31.1 mph 0.00 in   Unknown
10:25 AM 30.2 °F 15.4 °F 24.8 °F 80% 29.43 in 1.5 mi West 28.8 mph 43.7 mph 0.00 in Snow Light Snow
10:29 AM 30.2 °F 15.9 °F 26.6 °F 86% 29.42 in 0.8 mi West 26.5 mph 43.7 mph 0.00 in Snow Light Snow
10:53 AM 30.0 °F 16.0 °F 27.0 °F 88% 29.53 in 0.5 mi SW 25.3 mph 42.6 mph 0.00 in Fog , Snow Snow
11:03 AM 30.2 °F 17.1 °F 26.6 °F 86% 29.42 in 1.0 mi SW 21.9 mph 31.1 mph 0.00 in Snow Light Snow
11:06 AM 30.2 °F 15.9 °F 26.6 °F 86% 29.42 in 2.5 mi SW 26.5 mph 32.2 mph 0.00 in Snow Light Snow
11:13 AM 30.2 °F 15.4 °F 26.6 °F 86% 29.42 in 0.8 mi WSW 28.8 mph 38.0 mph 0.00 in Snow Light Snow
11:25 AM 30.2 °F 18.5 °F 26.6 °F 86% 29.41 in 2.5 mi SW 17.3 mph 26.5 mph 0.00 in Snow Light Snow
11:32 AM 32.0 °F 21.2 °F 26.6 °F 80% 29.41 in 9.0 mi SW 16.1 mph - 0.00 in   Mostly Cloudy
11:53 AM 30.9 °F 20.2 °F 25.0 °F 79% 29.49 in 10.0 mi SSW 15.0 mph - 0.00 in   Scattered Clouds
12:53 PM 34.0 °F 22.7 °F 21.9 °F 61% 29.51 in 10.0 mi SW 19.6 mph - N/A   Clear
1:53 PM 34.0 °F 21.8 °F 19.9 °F 56% 29.47 in 10.0 mi SW 23.0 mph 31.1 mph N/A   Clear
2:53 PM 33.1 °F 20.1 °F 19.0 °F 56% 29.52 in 10.0 mi WSW 25.3 mph 40.3 mph N/A   Scattered Clouds
5:34 PM 26.6 °F 11.1 °F 21.2 °F 80% 29.53 in 1.5 mi West 26.5 mph 38.0 mph 0.00 in Snow Light Snow
5:36 PM 26.6 °F 11.4 °F 23.0 °F 86% 29.53 in 1.0 mi West 25.3 mph 38.0 mph 0.00 in Snow Light Snow
5:43 PM 26.6 °F 11.4 °F 23.0 °F 86% 29.54 in 0.5 mi West 25.3 mph 32.2 mph 0.00 in Fog , Snow Snow
5:50 PM 26.6 °F 11.7 °F 21.2 °F 80% 29.55 in 1.0 mi West 24.2 mph 29.9 mph 0.00 in Snow Light Snow
5:53 PM 26.1 °F 12.0 °F 21.9 °F 84% 29.64 in 0.8 mi West 20.7 mph 32.2 mph 0.00 in Snow Light Snow
6:02 PM 24.8 °F 12.4 °F 21.2 °F 86% 29.55 in 1.2 mi West 15.0 mph - 0.00 in Snow Light Snow
6:05 PM 24.8 °F 13.4 °F 21.2 °F 86% 29.55 in 3.0 mi West 12.7 mph - 0.00 in Snow Light Snow
6:17 PM 24.8 °F 14.0 °F 21.2 °F 86% 29.55 in 9.0 mi SW 11.5 mph - 0.00 in   Overcast
6:53 PM 25.0 °F 11.3 °F 19.9 °F 81% 29.68 in 6.0 mi WSW 18.4 mph - 0.00 in Snow Light Snow
7:53 PM 26.1 °F 15.6 °F 12.0 °F 55% 29.67 in 10.0 mi WSW 11.5 mph - 0.00 in   Overcast
8:53 PM 24.1 °F 10.6 °F 15.1 °F 69% 29.70 in 10.0 mi WSW 17.3 mph 25.3 mph N/A   Overcast
9:53 PM 24.1 °F 10.6 °F 14.0 °F 65% 29.70 in 10.0 mi WSW 17.3 mph - N/A   Mostly Cloudy
10:53 PM 21.9 °F 7.8 °F 14.0 °F 72% 29.74 in 10.0 mi SW 17.3 mph - N/A   Overcast
11:53 PM 19.0 °F 4.0 °F 12.0 °F 74% 29.77 in 10.0 mi SSW 17.3 mph - N/A   Partly Cloudy